| time (UTC) | temp F | wind direction | speed MPH | gust MPH | rain 1hr in | rain 24hr in | rain mn in | humidity % | barometer mb |
| 20260505024848 | 70 | 290 | 1.0 | 2.0 | 0.00 | 0.00 | 0.00 | 59 | 1006.0 |
| 20260505024345 | 71 | 328 | 2.0 | 3.0 | 0.00 | 0.00 | 0.00 | 59 | 1005.8 |
| 20260505023841 | 71 | 330 | 1.0 | 1.0 | 0.00 | 0.00 | 0.00 | 59 | 1005.7 |
| 20260505023338 | 71 | 254 | 2.0 | 3.0 | 0.00 | 0.00 | 0.00 | 59 | 1005.7 |
| 20260505022836 | 71 | 343 | 1.0 | 2.0 | 0.00 | 0.00 | 0.00 | 58 | 1005.6 |
| 20260505022332 | 71 | 279 | 1.0 | 2.0 | 0.00 | 0.00 | 0.00 | 59 | 1005.2 |
| 20260505021830 | 71 | 10 | 3.0 | 5.0 | 0.00 | 0.00 | 0.00 | 59 | 1005.2 |
| 20260505021326 | 71 | 329 | 1.0 | 1.0 | 0.00 | 0.00 | 0.00 | 59 | 1005.5 |
| 20260505020822 | 71 | 330 | 2.0 | 2.0 | 0.00 | 0.00 | 0.00 | 58 | 1005.2 |
| 20260505020318 | 71 | 338 | 1.0 | 1.0 | 0.00 | 0.00 | 0.00 | 58 | 1005.3 |
| 20260505015815 | 72 | 326 | 2.0 | 3.0 | 0.00 | 0.00 | 0.00 | 58 | 1004.9 |
| 20260505015313 | 72 | 349 | 1.0 | 2.0 | 0.00 | 0.00 | 0.00 | 56 | 1004.9 |
| 20260505014810 | 72 | 307 | 2.0 | 2.0 | 0.00 | 0.00 | 0.00 | 56 | 1005.0 |
| 20260505014307 | 72 | 4 | 2.0 | 3.0 | 0.00 | 0.00 | 0.00 | 57 | 1004.6 |
| 20260505013803 | 72 | 311 | 2.0 | 3.0 | 0.00 | 0.00 | 0.00 | 56 | 1004.6 |
| 20260505013300 | 73 | 259 | 1.0 | 2.0 | 0.00 | 0.00 | 0.00 | 56 | 1004.6 |
| 20260505012758 | 73 | 251 | 1.0 | 2.0 | 0.00 | 0.00 | 0.00 | 56 | 1004.7 |
| 20260505012255 | 73 | 217 | 2.0 | 3.0 | 0.00 | 0.00 | 0.00 | 55 | 1004.4 |
| 20260505011751 | 73 | 320 | 1.0 | 1.0 | 0.00 | 0.00 | 0.00 | 57 | 1004.5 |
| 20260505011248 | 73 | 265 | 1.0 | 2.0 | 0.00 | 0.00 | 0.00 | 56 | 1004.4 |
| 20260505010744 | 73 | 314 | 3.0 | 5.0 | 0.00 | 0.00 | 0.00 | 55 | 1004.3 |
| 20260505010235 | 74 | 301 | 3.0 | 6.0 | 0.00 | 0.00 | 0.00 | 55 | 1004.1 |
| 20260505005732 | 74 | 274 | 3.0 | 3.0 | 0.00 | 0.00 | 0.00 | 55 | 1003.8 |
| 20260505005229 | 74 | 100 | 5.0 | 8.0 | 0.00 | 0.00 | 0.00 | 55 | 1003.9 |
| 20260505004726 | 74 | 336 | 3.0 | 3.0 | 0.00 | 0.00 | 0.00 | 57 | 1003.9 |
| 20260505004222 | 74 | 321 | 1.0 | 2.0 | 0.00 | 0.00 | 0.00 | 57 | 1004.1 |
| 20260505003719 | 74 | 338 | 1.0 | 1.0 | 0.00 | 0.00 | 0.00 | 56 | 1003.8 |
| 20260505003217 | 74 | 331 | 2.0 | 2.0 | 0.00 | 0.00 | 0.00 | 56 | 1003.9 |
| 20260505002713 | 74 | 330 | 1.0 | 1.0 | 0.00 | 0.00 | 0.00 | 55 | 1003.9 |
| 20260505002211 | 75 | 329 | 1.0 | 1.0 | 0.00 | 0.00 | 0.00 | 55 | 1003.9 |
| 20260505001708 | 75 | 355 | 0.0 | 1.0 | 0.00 | 0.00 | 0.00 | 55 | 1004.1 |
| 20260505001206 | 75 | 242 | 1.0 | 2.0 | 0.00 | 0.00 | 0.00 | 55 | 1004.0 |
| 20260505000703 | 75 | 347 | 2.0 | 3.0 | 0.00 | 0.00 | 0.00 | 54 | 1004.2 |
| 20260505000200 | 75 | 349 | 0.0 | 1.0 | 0.00 | 0.00 | 0.00 | 55 | 1004.0 |
| 20260504235656 | 75 | 283 | 1.0 | 1.0 | 0.00 | 0.00 | 0.00 | 55 | 1004.0 |
| 20260504235153 | 75 | 314 | 2.0 | 3.0 | 0.00 | 0.00 | 0.00 | 55 | 1004.2 |
| 20260504234650 | 75 | 289 | 3.0 | 3.0 | 0.00 | 0.00 | 0.00 | 54 | 1004.3 |
| 20260504234147 | 76 | 321 | 2.0 | 2.0 | 0.00 | 0.00 | 0.00 | 54 | 1004.1 |
| 20260504233643 | 76 | 11 | 0.0 | 1.0 | 0.00 | 0.00 | 0.00 | 54 | 1004.1 |
| 20260504233139 | 76 | 274 | 4.0 | 5.0 | 0.00 | 0.00 | 0.00 | 52 | 1004.3 |
| 20260504232637 | 77 | 21 | 0.0 | 0.0 | 0.00 | 0.00 | 0.00 | 53 | 1004.1 |
| 20260504232134 | 77 | 312 | 1.0 | 2.0 | 0.00 | 0.00 | 0.00 | 54 | 1004.0 |
| 20260504231631 | 77 | 241 | 5.0 | 7.0 | 0.00 | 0.00 | 0.00 | 52 | 1004.2 |
| 20260504231127 | 77 | 16 | 3.0 | 3.0 | 0.00 | 0.00 | 0.00 | 51 | 1004.4 |
| 20260504230623 | 77 | 9 | 1.0 | 2.0 | 0.00 | 0.00 | 0.00 | 51 | 1004.3 |
| 20260504230122 | 77 | 279 | 3.0 | 3.0 | 0.00 | 0.00 | 0.00 | 50 | 1004.5 |
| 20260504225620 | 77 | 267 | 3.0 | 3.0 | 0.00 | 0.00 | 0.00 | 50 | 1004.3 |
| 20260504225115 | 78 | 348 | 1.0 | 1.0 | 0.00 | 0.00 | 0.00 | 51 | 1004.3 |
| 20260504224612 | 79 | 269 | 1.0 | 2.0 | 0.00 | 0.00 | 0.00 | 51 | 1004.3 |
| 20260504224109 | 80 | 246 | 1.0 | 1.0 | 0.00 | 0.00 | 0.00 | 49 | 1004.4 |
| 20260504223606 | 79 | 224 | 2.0 | 3.0 | 0.00 | 0.00 | 0.00 | 49 | 1004.3 |
| 20260504223102 | 79 | 282 | 5.0 | 8.0 | 0.00 | 0.00 | 0.00 | 49 | 1004.4 |
| 20260504222559 | 79 | 259 | 2.0 | 3.0 | 0.00 | 0.00 | 0.00 | 50 | 1004.6 |
| 20260504222056 | 78 | 336 | 3.0 | 3.0 | 0.00 | 0.00 | 0.00 | 51 | 1004.2 |
| 20260504221554 | 78 | 336 | 3.0 | 5.0 | 0.00 | 0.00 | 0.00 | 49 | 1004.3 |
| 20260504221050 | 80 | 220 | 6.0 | 8.0 | 0.00 | 0.00 | 0.00 | 47 | 1004.4 |
| 20260504220547 | 80 | 281 | 2.0 | 3.0 | 0.00 | 0.00 | 0.00 | 46 | 1004.3 |
| 20260504220044 | 81 | 336 | 2.0 | 3.0 | 0.00 | 0.00 | 0.00 | 45 | 1004.3 |
| 20260504215540 | 80 | 193 | 3.0 | 3.0 | 0.00 | 0.00 | 0.00 | 45 | 1004.4 |
| 20260504215038 | 80 | 263 | 5.0 | 7.0 | 0.00 | 0.00 | 0.00 | 46 | 1004.5 |
| 20260504214533 | 81 | 330 | 2.0 | 2.0 | 0.00 | 0.00 | 0.00 | 46 | 1004.5 |
| 20260504214030 | 82 | 270 | 3.0 | 5.0 | 0.00 | 0.00 | 0.00 | 47 | 1004.5 |
| 20260504213527 | 81 | 268 | 2.0 | 2.0 | 0.00 | 0.00 | 0.00 | 44 | 1004.5 |
| 20260504213024 | 82 | 234 | 3.0 | 3.0 | 0.00 | 0.00 | 0.00 | 45 | 1004.3 |
| 20260504212520 | 81 | 242 | 4.0 | 6.0 | 0.00 | 0.00 | 0.00 | 44 | 1004.5 |
| 20260504212017 | 81 | 344 | 4.0 | 5.0 | 0.00 | 0.00 | 0.00 | 44 | 1004.6 |
| 20260504211514 | 82 | 266 | 3.0 | 3.0 | 0.00 | 0.00 | 0.00 | 45 | 1004.6 |
| 20260504211011 | 82 | 52 | 1.0 | 1.0 | 0.00 | 0.00 | 0.00 | 46 | 1004.4 |
| 20260504210508 | 82 | 263 | 1.0 | 2.0 | 0.00 | 0.00 | 0.00 | 47 | 1004.7 |
| 20260504210005 | 81 | 291 | 4.0 | 6.0 | 0.00 | 0.00 | 0.00 | 45 | 1004.6 |
| 20260504205503 | 80 | 343 | 6.0 | 11.0 | 0.00 | 0.00 | 0.00 | 45 | 1004.8 |
| 20260504205000 | 80 | 264 | 2.0 | 3.0 | 0.00 | 0.00 | 0.00 | 48 | 1005.0 |
| 20260504204458 | 79 | 280 | 2.0 | 2.0 | 0.00 | 0.00 | 0.00 | 49 | 1004.7 |
| 20260504203957 | 80 | 285 | 4.0 | 5.0 | 0.00 | 0.00 | 0.00 | 47 | 1004.7 |
| 20260504203455 | 79 | 318 | 7.0 | 11.0 | 0.00 | 0.00 | 0.00 | 48 | 1004.8 |
| 20260504202950 | 80 | 261 | 2.0 | 2.0 | 0.00 | 0.00 | 0.00 | 48 | 1004.9 |
| 20260504202447 | 79 | 316 | 2.0 | 3.0 | 0.00 | 0.00 | 0.00 | 50 | 1005.0 |
| 20260504201944 | 79 | 237 | 3.0 | 3.0 | 0.00 | 0.00 | 0.00 | 48 | 1004.8 |
| 20260504201441 | 78 | 329 | 2.0 | 2.0 | 0.00 | 0.00 | 0.00 | 49 | 1004.9 |
| 20260504200939 | 79 | 209 | 6.0 | 13.0 | 0.00 | 0.00 | 0.00 | 48 | 1004.7 |
| 20260504200435 | 79 | 264 | 2.0 | 2.0 | 0.00 | 0.00 | 0.00 | 49 | 1005.0 |
| 20260504195932 | 79 | 251 | 3.0 | 3.0 | 0.00 | 0.00 | 0.00 | 48 | 1005.0 |
| 20260504195428 | 77 | 280 | 4.0 | 6.0 | 0.00 | 0.00 | 0.00 | 49 | 1005.2 |
| 20260504194924 | 77 | 252 | 4.0 | 7.0 | 0.00 | 0.00 | 0.00 | 50 | 1005.0 |
| 20260504194421 | 77 | 323 | 2.0 | 3.0 | 0.00 | 0.00 | 0.00 | 51 | 1005.6 |
| 20260504193917 | 78 | 297 | 2.0 | 3.0 | 0.00 | 0.00 | 0.00 | 49 | 1005.3 |
| 20260504193414 | 79 | 320 | 3.0 | 5.0 | 0.00 | 0.00 | 0.00 | 48 | 1005.3 |
| 20260504192913 | 79 | 284 | 3.0 | 6.0 | 0.00 | 0.00 | 0.00 | 48 | 1005.5 |
| 20260504192410 | 80 | 349 | 3.0 | 3.0 | 0.00 | 0.00 | 0.00 | 45 | 1005.1 |
| 20260504191909 | 80 | 338 | 3.0 | 3.0 | 0.00 | 0.00 | 0.00 | 48 | 1005.5 |
| 20260504191406 | 79 | 321 | 2.0 | 3.0 | 0.00 | 0.00 | 0.00 | 48 | 1005.3 |
| 20260504190901 | 78 | 318 | 3.0 | 5.0 | 0.00 | 0.00 | 0.00 | 50 | 1005.5 |
| 20260504190357 | 77 | 289 | 2.0 | 2.0 | 0.00 | 0.00 | 0.00 | 51 | 1005.3 |
| 20260504185854 | 75 | 322 | 3.0 | 5.0 | 0.00 | 0.00 | 0.00 | 52 | 1005.3 |
| 20260504185351 | 76 | 338 | 2.0 | 2.0 | 0.00 | 0.00 | 0.00 | 53 | 1005.6 |
| 20260504184847 | 76 | 234 | 5.0 | 8.0 | 0.00 | 0.00 | 0.00 | 52 | 1005.9 |
| 20260504184343 | 75 | 249 | 4.0 | 6.0 | 0.00 | 0.00 | 0.00 | 52 | 1005.8 |
| 20260504183839 | 75 | 325 | 1.0 | 1.0 | 0.00 | 0.00 | 0.00 | 54 | 1006.1 |
| 20260504183337 | 75 | 266 | 2.0 | 3.0 | 0.00 | 0.00 | 0.00 | 52 | 1006.5 |
| 20260504182834 | 74 | 1 | 1.0 | 2.0 | 0.00 | 0.00 | 0.00 | 54 | 1006.2 |
| 20260504182331 | 74 | 299 | 8.0 | 13.0 | 0.00 | 0.00 | 0.00 | 51 | 1006.3 |
| 20260504181828 | 74 | 3 | 3.0 | 5.0 | 0.00 | 0.00 | 0.00 | 52 | 1006.2 |
| 20260504181326 | 75 | 340 | 4.0 | 5.0 | 0.00 | 0.00 | 0.00 | 50 | 1006.5 |
| 20260504180824 | 75 | 277 | 1.0 | 2.0 | 0.00 | 0.00 | 0.00 | 52 | 1006.5 |
| 20260504180322 | 76 | 257 | 3.0 | 5.0 | 0.00 | 0.00 | 0.00 | 49 | 1006.3 |
| 20260504175820 | 77 | 269 | 2.0 | 2.0 | 0.00 | 0.00 | 0.00 | 51 | 1006.3 |
| 20260504175317 | 77 | 241 | 3.0 | 3.0 | 0.00 | 0.00 | 0.00 | 48 | 1006.3 |
| 20260504174815 | 78 | 214 | 7.0 | 8.0 | 0.00 | 0.00 | 0.00 | 46 | 1006.1 |
| 20260504174312 | 80 | 342 | 2.0 | 2.0 | 0.00 | 0.00 | 0.00 | 47 | 1006.5 |
| 20260504173809 | 80 | 250 | 4.0 | 5.0 | 0.00 | 0.00 | 0.00 | 47 | 1006.4 |
| 20260504173306 | 79 | 309 | 3.0 | 3.0 | 0.00 | 0.00 | 0.00 | 45 | 1006.1 |
| 20260504172803 | 80 | 293 | 2.0 | 3.0 | 0.00 | 0.00 | 0.00 | 45 | 1006.4 |
| 20260504172259 | 79 | 348 | 5.0 | 7.0 | 0.00 | 0.00 | 0.00 | 47 | 1006.0 |
| 20260504171755 | 79 | 321 | 2.0 | 3.0 | 0.00 | 0.00 | 0.00 | 48 | 1006.5 |
| 20260504171252 | 79 | 246 | 2.0 | 3.0 | 0.00 | 0.00 | 0.00 | 45 | 1006.2 |
| 20260504170749 | 80 | 253 | 2.0 | 2.0 | 0.00 | 0.00 | 0.00 | 46 | 1006.6 |
| 20260504170246 | 79 | 254 | 3.0 | 5.0 | 0.00 | 0.00 | 0.00 | 46 | 1006.4 |
| 20260504160205 | 76 | 266 | 7.0 | 10.0 | 0.00 | 0.00 | 0.00 | 46 | 1006.3 |
| 20260504151133 | 73 | 333 | 3.0 | 3.0 | 0.00 | 0.00 | 0.00 | 49 | 1006.6 |
| 20260504150630 | 73 | 314 | 4.0 | 7.0 | 0.00 | 0.00 | 0.00 | 49 | 1006.8 |
| 20260504150127 | 72 | 280 | 3.0 | 3.0 | 0.00 | 0.00 | 0.00 | 50 | 1006.7 |
| 20260504141055 | 69 | 278 | 2.0 | 5.0 | 0.00 | 0.00 | 0.00 | 54 | 1007.4 |
| 20260504140552 | 69 | 321 | 6.0 | 9.0 | 0.00 | 0.00 | 0.00 | 53 | 1007.5 |
| 20260504130516 | 65 | 232 | 2.0 | 3.0 | 0.00 | 0.00 | 0.00 | 58 | 1007.7 |
| 20260504110404 | 63 | 316 | 3.0 | 3.0 | 0.00 | 0.00 | 0.00 | 57 | 1008.0 |
| 20260504100321 | 64 | 289 | 2.0 | 3.0 | 0.00 | 0.00 | 0.00 | 55 | 1008.1 |
| 20260504081715 | 64 | 323 | 3.0 | 5.0 | 0.00 | 0.00 | 0.00 | 58 | 1008.7 |
| 20260504081211 | 65 | 297 | 1.0 | 2.0 | 0.00 | 0.00 | 0.00 | 58 | 1008.7 |
| 20260504080707 | 65 | 272 | 2.0 | 3.0 | 0.00 | 0.00 | 0.00 | 58 | 1008.8 |
| 20260504080204 | 65 | 269 | 1.0 | 2.0 | 0.00 | 0.00 | 0.00 | 58 | 1008.8 |
| 20260504070131 | 66 | 266 | 1.0 | 2.0 | 0.00 | 0.00 | 0.00 | 55 | 1009.1 |
| 20260504050520 | 65 | 251 | 5.0 | 7.0 | 0.00 | 0.00 | 0.00 | 55 | 1009.7 |
| 20260504050017 | 65 | 281 | 1.0 | 2.0 | 0.00 | 0.00 | 0.00 | 55 | 1009.9 |
| 20260504045514 | 65 | 1 | 3.0 | 6.0 | 0.00 | 0.00 | 0.00 | 56 | 1010.0 |
| 20260504045009 | 65 | 17 | 1.0 | 2.0 | 0.00 | 0.00 | 0.00 | 55 | 1009.9 |
| 20260504044507 | 65 | 325 | 1.0 | 1.0 | 0.00 | 0.00 | 0.00 | 56 | 1009.9 |
| 20260504044004 | 66 | 49 | 1.0 | 1.0 | 0.00 | 0.00 | 0.00 | 55 | 1009.9 |
| 20260504043500 | 66 | 321 | 1.0 | 2.0 | 0.00 | 0.00 | 0.00 | 56 | 1010.2 |
| 20260504042958 | 65 | 306 | 2.0 | 2.0 | 0.00 | 0.00 | 0.00 | 55 | 1010.0 |
| 20260504042454 | 66 | 324 | 1.0 | 1.0 | 0.00 | 0.00 | 0.00 | 55 | 1010.1 |
| 20260504041952 | 66 | 189 | 1.0 | 2.0 | 0.00 | 0.00 | 0.00 | 56 | 1010.2 |
| 20260504041448 | 66 | 323 | 1.0 | 1.0 | 0.00 | 0.00 | 0.00 | 55 | 1010.1 |
| 20260504040943 | 66 | 300 | 2.0 | 2.0 | 0.00 | 0.00 | 0.00 | 55 | 1010.4 |
| 20260504040442 | 66 | 287 | 1.0 | 1.0 | 0.00 | 0.00 | 0.00 | 55 | 1010.2 |
| 20260504035937 | 66 | 46 | 1.0 | 2.0 | 0.00 | 0.00 | 0.00 | 56 | 1010.3 |
| 20260504035435 | 66 | 346 | 1.0 | 1.0 | 0.00 | 0.00 | 0.00 | 56 | 1010.4 |
| 20260504034931 | 66 | 262 | 1.0 | 2.0 | 0.00 | 0.00 | 0.00 | 56 | 1010.5 |
| 20260504034429 | 66 | 306 | 1.0 | 1.0 | 0.00 | 0.00 | 0.00 | 55 | 1010.3 |
| 20260504033926 | 66 | 202 | 2.0 | 2.0 | 0.00 | 0.00 | 0.00 | 54 | 1010.6 |
| 20260504033424 | 66 | 2 | 0.0 | 1.0 | 0.00 | 0.00 | 0.00 | 53 | 1010.5 |
| 20260504032920 | 66 | 15 | 0.0 | 1.0 | 0.00 | 0.00 | 0.00 | 54 | 1010.6 |
| 20260504032417 | 66 | 275 | 2.0 | 3.0 | 0.00 | 0.00 | 0.00 | 53 | 1010.7 |
| 20260504031914 | 66 | 1 | 0.0 | 1.0 | 0.00 | 0.00 | 0.00 | 54 | 1010.7 |
| 20260504031411 | 67 | 6 | 1.0 | 1.0 | 0.00 | 0.00 | 0.00 | 53 | 1010.7 |
| 20260504030908 | 66 | 30 | 2.0 | 2.0 | 0.00 | 0.00 | 0.00 | 53 | 1010.9 |
| 20260504030405 | 66 | 357 | 1.0 | 1.0 | 0.00 | 0.00 | 0.00 | 54 | 1010.7 |
| 20260504025901 | 66 | 328 | 1.0 | 3.0 | 0.00 | 0.00 | 0.00 | 54 | 1010.8 |
| 20260504025358 | 67 | 8 | 1.0 | 1.0 | 0.00 | 0.00 | 0.00 | 55 | 1010.7 |